GW3217 Weather Reports


Display with metric or nautical units.
time (UTC)temp
F
wind
direction
speed
MPH
gust
MPH
rain 1hr
in
rain 24hr
in
rain mn
in
humidity
%
barometer
mb
20260509111337 45 217 0.0 0.0 0.00 0.02 0.02 99 1015.2
20260509110835 45 232 0.0 0.0 0.00 0.02 0.02 99 1015.2
20260509110331 45 211 0.0 0.0 0.00 0.02 0.02 99 1015.2
20260509105829 45 209 0.0 0.0 0.00 0.02 0.02 99 1015.3
20260509105327 45 226 0.0 0.0 0.00 0.02 0.02 99 1015.1
20260509104823 45 216 0.0 0.0 0.00 0.02 0.02 99 1015.2
20260509104320 45 184 0.0 0.0 0.00 0.02 0.02 99 1015.0
20260509103818 44 218 0.0 0.0 0.00 0.02 0.02 99 1014.8
20260509103315 44 216 0.0 0.0 0.00 0.02 0.02 99 1015.1
20260509102814 44 210 0.0 0.0 0.00 0.02 0.02 99 1014.9
20260509102310 44 238 0.0 0.0 0.00 0.02 0.02 99 1015.0
20260509101806 44 239 0.0 0.0 0.00 0.02 0.02 99 1015.3
20260509101303 44 214 0.0 0.0 0.00 0.02 0.02 99 1015.2
20260509100800 44 212 0.0 0.0 0.00 0.02 0.02 99 1015.4
20260509100258 44 226 0.0 0.0 0.00 0.02 0.02 99 1015.4
20260509095754 44 202 0.0 0.0 0.00 0.02 0.02 99 1015.3
20260509095251 45 191 0.0 0.0 0.00 0.02 0.02 99 1015.2
20260509094748 45 197 0.0 0.0 0.00 0.02 0.02 99 1015.3
20260509094245 45 271 0.0 0.0 0.00 0.02 0.02 99 1014.9
20260509093743 45 236 0.0 0.0 0.00 0.02 0.02 99 1015.0
20260509093240 45 236 0.0 0.0 0.00 0.02 0.02 99 1015.0
20260509092738 45 183 0.0 0.0 0.00 0.02 0.02 99 1015.0
20260509092236 45 196 0.0 0.0 0.00 0.02 0.02 99 1015.0
20260509091734 45 218 0.0 0.0 0.00 0.02 0.02 99 1015.0
20260509091230 45 218 0.0 0.0 0.00 0.02 0.02 99 1014.9
20260509090728 45 218 0.0 0.0 0.00 0.02 0.02 99 1015.2
20260509090224 45 218 0.0 0.0 0.00 0.02 0.02 99 1015.0
20260509085722 45 218 0.0 0.0 0.00 0.02 0.02 99 1015.0
20260509085219 45 218 0.0 0.0 0.00 0.02 0.02 99 1015.2
20260509084716 45 217 0.0 0.0 0.00 0.02 0.02 99 1014.9
20260509084212 45 217 0.0 0.0 0.00 0.02 0.02 99 1015.0
20260509083711 45 211 0.0 0.0 0.00 0.02 0.02 99 1014.9
20260509083207 45 211 0.0 0.0 0.00 0.02 0.02 99 1015.0
20260509082704 45 210 0.0 0.0 0.00 0.02 0.02 99 1014.9
20260509082200 45 171 0.0 0.0 0.00 0.02 0.02 99 1014.9
20260509081657 45 176 0.0 0.0 0.00 0.02 0.02 99 1014.9
20260509081154 45 183 0.0 0.0 0.00 0.02 0.02 98 1014.9
20260509080653 46 157 0.0 0.0 0.00 0.02 0.02 98 1014.9
20260509080150 46 182 0.0 0.0 0.05 0.02 0.02 98 1014.9
20260509075648 45 202 0.0 0.0 0.05 0.02 0.02 98 1015.0
20260509075145 45 217 0.0 0.0 0.00 0.01 0.01 97 1015.0
20260509074642 46 240 0.0 0.0 0.00 0.01 0.01 97 1015.1
20260509074139 46 170 0.0 0.0 0.07 0.01 0.01 97 1014.5
20260509073636 46 227 0.0 0.0 0.07 0.01 0.01 96 1014.6
20260509073132 46 207 0.0 0.0 0.00 0.00 0.00 96 1014.9
20260509072629 46 204 0.0 0.0 0.00 0.00 0.00 95 1014.9
20260509072126 46 229 0.0 0.0 0.00 0.00 0.00 94 1015.1
20260509071622 46 207 0.0 0.0 0.00 0.00 0.00 93 1014.9
20260509071120 46 207 0.0 0.0 0.00 0.00 0.00 93 1015.0
20260509070617 46 207 0.0 0.0 0.00 0.00 0.00 93 1014.9
20260509070113 46 207 0.0 0.0 0.00 0.00 0.00 92 1015.0
20260509065608 46 207 0.0 0.0 0.00 0.00 0.00 90 1014.8
20260509065105 46 207 0.0 0.0 0.00 0.00 0.00 89 1014.8
20260509064602 47 208 0.0 0.0 0.00 0.00 0.00 88 1014.8
20260509064100 47 207 0.0 0.0 0.00 0.00 0.00 88 1015.0
20260509063556 47 199 0.0 0.0 0.00 0.00 0.00 87 1014.9
20260509063053 47 205 0.0 0.0 0.00 0.00 0.00 86 1015.1
20260509062550 46 206 0.0 0.0 0.00 0.00 0.00 86 1014.9
20260509062048 47 175 0.0 0.0 0.00 0.00 0.00 86 1014.9
20260509061544 47 184 0.0 0.0 0.00 0.00 0.00 86 1015.1
20260509061042 46 197 0.0 0.0 0.00 0.00 0.00 85 1015.3
20260509060539 46 169 0.0 0.0 0.00 0.00 0.00 86 1015.4
20260509060034 46 224 0.0 0.0 0.00 0.00 0.00 86 1015.4
20260509055529 46 196 0.0 0.0 0.00 0.00 0.00 85 1015.3
20260509055021 46 218 0.0 0.0 0.00 0.00 0.00 85 1015.4
20260509054517 47 170 0.0 0.0 0.00 0.00 0.00 85 1015.4
20260509054016 47 200 0.0 0.0 0.00 0.00 0.00 86 1015.5
20260509053514 47 231 0.0 0.0 0.00 0.00 0.00 85 1015.6
20260509053010 47 197 0.0 0.0 0.00 0.00 0.00 86 1015.5
20260509052508 47 208 0.0 0.0 0.00 0.00 0.00 85 1015.3
20260509052006 47 207 0.0 0.0 0.00 0.00 0.00 84 1015.4
20260509051504 46 241 0.0 0.0 0.00 0.00 0.00 84 1015.4
20260509051001 46 268 0.0 0.0 0.00 0.00 0.00 87 1015.4
20260509050457 46 213 0.0 0.0 0.00 0.00 0.00 87 1015.4
20260509045953 46 174 0.0 0.0 0.00 0.00 0.00 87 1015.7
20260509045451 46 175 0.0 0.0 0.00 0.00 0.00 85 1015.5
20260509044948 47 164 0.0 0.0 0.00 0.00 0.00 84 1015.5
20260509044446 47 183 0.0 0.0 0.00 0.00 0.00 83 1015.6
20260509043942 47 191 0.0 0.0 0.00 0.00 0.00 83 1015.5
20260509043438 47 197 0.0 0.0 0.00 0.00 0.00 83 1015.5
20260509042934 47 201 0.0 0.0 0.00 0.00 0.00 83 1015.5
20260509042431 47 196 0.0 0.0 0.00 0.00 0.00 82 1015.7
20260509041927 47 220 0.0 0.0 0.00 0.00 0.00 82 1015.7
20260509041424 47 229 0.0 0.0 0.00 0.00 0.00 82 1015.6
20260509040922 47 233 0.0 0.0 0.00 0.00 0.00 81 1015.5
20260509040420 47 192 0.0 0.0 0.00 0.00 0.00 82 1015.6
20260509035916 47 232 0.0 0.0 0.00 0.01 0.01 84 1015.7
20260509035414 46 208 0.0 0.0 0.00 0.01 0.01 86 1015.8
20260509034910 47 220 0.0 0.0 0.00 0.01 0.01 88 1016.0
20260509034408 47 221 0.0 0.0 0.00 0.01 0.01 87 1015.8
20260509033905 47 209 0.0 0.0 0.00 0.01 0.01 85 1015.7
20260509033402 47 237 0.0 0.0 0.00 0.01 0.01 86 1015.5
20260509032858 47 241 0.0 0.0 0.00 0.01 0.01 86 1015.5
20260509032355 47 302 0.0 0.0 0.00 0.01 0.01 85 1015.4
20260509031854 47 232 0.0 0.0 0.00 0.01 0.01 83 1015.5
20260509031351 48 208 0.0 0.0 0.00 0.01 0.01 82 1015.5
20260509030848 48 212 0.0 0.0 0.00 0.01 0.01 82 1015.2
20260509030346 48 167 0.0 0.0 0.00 0.01 0.01 80 1015.2
20260509025843 48 184 0.0 0.0 0.00 0.01 0.01 77 1015.2
20260509025338 48 208 0.0 0.0 0.00 0.01 0.01 75 1015.3
20260509024833 48 156 0.0 0.0 0.00 0.01 0.01 77 1015.1
20260509024330 48 220 0.0 0.0 0.00 0.01 0.01 77 1015.2
20260509023827 48 240 0.0 0.0 0.00 0.01 0.01 77 1014.9
20260509023325 48 95 1.0 2.0 0.00 0.01 0.01 74 1015.0
20260509022821 48 149 0.0 0.0 0.00 0.01 0.01 78 1015.1
20260509022318 48 178 0.0 0.0 0.00 0.01 0.01 76 1015.3
20260509021815 48 194 0.0 0.0 0.00 0.01 0.01 77 1015.2
20260509021312 47 172 0.0 0.0 0.00 0.01 0.01 77 1015.0
20260509020810 47 196 0.0 0.0 0.00 0.01 0.01 78 1015.2
20260509020308 47 193 0.0 0.0 0.00 0.01 0.01 78 1015.2
20260509015805 47 180 0.0 0.0 0.00 0.01 0.01 78 1015.2
20260509015306 46 170 0.0 0.0 0.00 0.01 0.01 78 1015.1
20260509014759 46 190 0.0 0.0 0.00 0.01 0.01 78 1015.2
20260509014256 46 186 0.0 0.0 0.00 0.01 0.01 79 1015.1
20260509013753 46 191 0.0 0.0 0.00 0.01 0.01 79 1015.0
20260509013248 46 178 0.0 0.0 0.00 0.01 0.01 78 1014.6
20260509012745 46 185 0.0 0.0 0.00 0.01 0.01 78 1014.8
20260509012242 46 186 0.0 0.0 0.00 0.01 0.01 77 1014.9
20260509011739 46 191 0.0 0.0 0.00 0.01 0.01 77 1014.9
20260509011237 46 186 0.0 0.0 0.00 0.01 0.01 77 1014.8
20260509010735 46 199 0.0 0.0 0.00 0.01 0.01 77 1014.5
20260509010231 46 195 0.0 0.0 0.00 0.01 0.01 77 1014.6
20260509005728 46 174 0.0 0.0 0.00 0.01 0.01 75 1014.6
20260509005225 47 170 0.0 0.0 0.00 0.01 0.01 76 1014.4
20260509004720 47 201 0.0 0.0 0.00 0.01 0.01 75 1014.4
20260509004218 47 193 0.0 0.0 0.00 0.01 0.01 75 1014.2
20260509003716 47 167 0.0 0.0 0.00 0.01 0.01 73 1014.0
20260509003213 47 126 0.0 0.0 0.00 0.01 0.01 72 1013.9
20260509002710 48 140 0.0 0.0 0.00 0.01 0.01 72 1013.8
20260509002208 48 179 0.0 0.0 0.00 0.01 0.01 73 1013.8
20260509001705 48 163 0.0 0.0 0.00 0.01 0.01 72 1013.9
20260509001201 48 184 0.0 0.0 0.00 0.01 0.01 71 1014.1
20260509000659 49 183 0.0 0.0 0.00 0.01 0.01 71 1013.9
20260509000156 50 190 0.0 0.0 0.00 0.01 0.01 68 1014.0
20260508235653 51 210 0.0 0.0 0.00 0.01 0.01 66 1013.7
20260508235149 51 235 0.0 0.0 0.00 0.01 0.01 63 1014.0
20260508234646 51 236 0.0 0.0 0.00 0.01 0.01 61 1013.7
20260508234142 52 239 0.0 0.0 0.00 0.01 0.01 61 1013.6
20260508233637 53 238 0.0 0.0 0.00 0.01 0.01 59 1013.6
20260508233134 53 239 0.0 0.0 0.00 0.01 0.01 57 1013.6
20260508232631 53 250 1.0 2.0 0.00 0.01 0.01 55 1013.5
20260508232128 53 252 0.0 0.0 0.00 0.01 0.01 55 1013.4
20260508231625 53 257 1.0 2.0 0.00 0.01 0.01 54 1013.5
20260508231122 54 244 0.0 1.0 0.00 0.01 0.01 54 1013.6
20260508230618 54 244 0.0 0.0 0.00 0.01 0.01 54 1013.4
20260508230115 54 265 0.0 0.0 0.00 0.01 0.01 54 1013.3
20260508225613 54 221 0.0 0.0 0.00 0.01 0.01 52 1013.5
20260508225109 54 246 2.0 2.0 0.00 0.01 0.01 52 1013.3
20260508224607 54 254 2.0 2.0 0.00 0.01 0.01 51 1013.1
20260508224104 54 238 0.0 1.0 0.00 0.01 0.01 51 1013.1
20260508223602 55 236 1.0 1.0 0.00 0.01 0.01 50 1013.1
20260508223059 55 243 1.0 1.0 0.00 0.01 0.01 48 1012.9
20260508222556 55 232 1.0 1.0 0.00 0.01 0.01 49 1013.0
20260508222053 55 265 0.0 1.0 0.00 0.01 0.01 48 1012.9
20260508221549 55 252 2.0 2.0 0.00 0.01 0.01 49 1013.0
20260508221045 56 304 2.0 2.0 0.00 0.01 0.01 46 1013.0
20260508220542 57 228 2.0 2.0 0.00 0.01 0.01 45 1012.7
20260508220038 56 257 2.0 3.0 0.00 0.01 0.01 48 1012.8
20260508215535 55 264 1.0 2.0 0.00 0.01 0.01 53 1013.2
20260508215032 54 215 0.0 0.0 0.00 0.01 0.01 55 1013.1
20260508214530 54 265 0.0 0.0 0.00 0.01 0.01 55 1013.0
20260508214026 54 139 1.0 1.0 0.00 0.01 0.01 55 1013.0
20260508213524 54 243 0.0 0.0 0.00 0.01 0.01 58 1013.0
20260508213019 55 263 1.0 2.0 0.00 0.01 0.01 55 1013.1
20260508212515 55 246 2.0 2.0 0.00 0.01 0.01 58 1013.0
20260508212011 55 286 3.0 3.0 0.00 0.01 0.01 56 1013.1
20260508211502 54 310 1.0 2.0 0.00 0.01 0.01 57 1013.0
20260508210958 54 270 2.0 3.0 0.00 0.01 0.01 57 1013.1
20260508210455 56 249 1.0 1.0 0.00 0.01 0.01 57 1013.2
20260508205951 56 254 2.0 2.0 0.00 0.01 0.01 55 1012.9
20260508205449 56 251 3.0 3.0 0.00 0.01 0.01 53 1012.8
20260508204945 56 272 6.0 9.0 0.00 0.01 0.01 56 1013.1
20260508204443 57 278 4.0 6.0 0.00 0.01 0.01 57 1012.9
20260508203937 55 241 3.0 3.0 0.00 0.01 0.01 62 1012.9
20260508203434 55 237 4.0 4.0 0.00 0.01 0.01 63 1012.8
20260508202930 54 253 5.0 6.0 0.00 0.01 0.01 65 1012.8
20260508202427 53 187 2.0 3.0 0.00 0.01 0.01 65 1012.6
20260508201924 53 260 1.0 2.0 0.00 0.01 0.01 69 1012.9
20260508201421 53 250 2.0 3.0 0.00 0.01 0.01 70 1012.9
20260508200918 53 262 1.0 2.0 0.00 0.01 0.01 71 1012.7
20260508200414 53 272 3.0 6.0 0.00 0.01 0.01 66 1012.9
20260508195904 53 271 2.0 3.0 0.00 0.01 0.01 73 1013.0
20260508195401 52 237 1.0 2.0 0.00 0.01 0.01 72 1013.0
20260508194857 52 252 4.0 4.0 0.00 0.01 0.01 74 1013.0
20260508194354 50 271 5.0 6.0 0.00 0.01 0.01 76 1013.2
20260508193851 49 261 3.0 3.0 0.00 0.01 0.01 77 1013.4
20260508193348 48 253 2.0 3.0 0.00 0.01 0.01 79 1013.4
20260508192844 48 250 2.0 3.0 0.00 0.01 0.01 79 1013.4
20260508192341 48 262 3.0 3.0 0.00 0.01 0.01 79 1013.8
20260508191838 48 247 2.0 2.0 0.00 0.01 0.01 80 1013.8
20260508191336 48 258 2.0 2.0 0.00 0.01 0.01 80 1013.6
20260508190833 48 238 3.0 3.0 0.00 0.01 0.01 82 1013.6
20260508190329 48 267 2.0 2.0 0.00 0.01 0.01 82 1013.6
20260508185826 47 240 2.0 3.0 0.00 0.01 0.01 84 1013.7
20260508185323 47 251 2.0 2.0 0.00 0.01 0.01 84 1013.9
20260508184820 47 244 1.0 2.0 0.00 0.01 0.01 84 1014.0
20260508184317 46 288 4.0 7.0 0.05 0.01 0.01 82 1013.7
20260508183814 46 247 3.0 3.0 0.05 0.01 0.01 82 1014.0
20260508183311 48 257 3.0 3.0 0.00 0.00 0.00 77 1013.9
20260508182806 48 226 4.0 4.0 0.00 0.00 0.00 73 1013.6
20260508182306 51 243 2.0 2.0 0.00 0.00 0.00 67 1013.8
20260508181753 52 244 3.0 6.0 0.00 0.00 0.00 59 1013.3
20260508181250 52 258 6.0 7.0 0.00 0.00 0.00 56 1013.0
20260508180747 53 267 4.0 4.0 0.00 0.00 0.00 57 1012.9
20260508180244 54 260 4.0 6.0 0.00 0.00 0.00 55 1012.8
20260508175740 54 248 2.0 2.0 0.00 0.00 0.00 55 1012.8
20260508175237 54 264 3.0 4.0 0.00 0.00 0.00 57 1013.0
20260508174735 54 240 1.0 2.0 0.00 0.00 0.00 59 1013.1
20260508174232 52 244 2.0 2.0 0.00 0.00 0.00 60 1013.1
20260508173728 51 247 2.0 3.0 0.00 0.00 0.00 60 1013.5
20260508173225 52 253 3.0 3.0 0.00 0.00 0.00 60 1013.5
20260508172722 52 242 1.0 2.0 0.00 0.00 0.00 59 1013.4
20260508172219 51 245 2.0 2.0 0.00 0.00 0.00 60 1013.4
20260508171715 51 248 3.0 3.0 0.00 0.00 0.00 59 1013.6
20260508171211 51 253 1.0 2.0 0.00 0.00 0.00 59 1013.4
20260508170708 51 231 3.0 4.0 0.00 0.00 0.00 57 1013.7
20260508170206 51 241 2.0 3.0 0.00 0.00 0.00 57 1013.4
20260508165703 52 266 5.0 6.0 0.00 0.00 0.00 57 1013.3
20260508165200 52 191 3.0 3.0 0.00 0.00 0.00 57 1013.2
20260508164656 51 238 4.0 6.0 0.00 0.00 0.00 55 1013.4
20260508164153 52 263 4.0 6.0 0.00 0.00 0.00 55 1013.4
20260508163651 52 257 3.0 4.0 0.00 0.00 0.00 56 1013.4
20260508163148 53 261 5.0 7.0 0.00 0.00 0.00 55 1013.5
20260508162643 52 263 4.0 4.0 0.00 0.00 0.00 57 1013.4
20260508162141 51 276 5.0 6.0 0.00 0.00 0.00 57 1013.6
20260508161638 51 258 5.0 8.0 0.00 0.00 0.00 54 1013.6
20260508161135 52 248 3.0 3.0 0.00 0.00 0.00 53 1013.7
20260508160633 52 304 7.0 9.0 0.00 0.00 0.00 51 1013.6
20260508160130 53 242 4.0 4.0 0.00 0.00 0.00 53 1013.7
20260508155622 52 252 3.0 4.0 0.00 0.00 0.00 53 1013.5
20260508155119 52 234 3.0 4.0 0.00 0.00 0.00 53 1013.7
20260508154615 53 237 1.0 1.0 0.00 0.00 0.00 50 1013.6
20260508154112 53 252 0.0 0.0 0.00 0.00 0.00 51 1013.5
20260508153609 53 252 2.0 2.0 0.00 0.00 0.00 47 1013.5
20260508153105 53 259 1.0 2.0 0.00 0.00 0.00 51 1013.5
20260508152557 53 235 3.0 3.0 0.00 0.00 0.00 52 1013.6
20260508152052 54 196 0.0 0.0 0.00 0.00 0.00 53 1013.7
20260508151549 53 231 1.0 2.0 0.00 0.00 0.00 54 1013.6
20260508151046 53 239 1.0 1.0 0.00 0.00 0.00 55 1013.5
20260508150543 53 218 2.0 3.0 0.00 0.00 0.00 46 1013.4
20260508150038 52 258 4.0 4.0 0.00 0.00 0.00 51 1013.7
20260508145535 53 235 3.0 3.0 0.00 0.00 0.00 56 1013.8
20260508145031 54 238 1.0 1.0 0.00 0.00 0.00 61 1013.9
20260508144529 52 238 2.0 3.0 0.00 0.00 0.00 60 1013.9
20260508144026 52 265 6.0 7.0 0.00 0.00 0.00 59 1013.9
20260508143519 52 245 2.0 2.0 0.00 0.00 0.00 61 1014.1
20260508143015 52 251 2.0 3.0 0.00 0.00 0.00 62 1013.9
20260508142512 51 264 4.0 6.0 0.00 0.00 0.00 61 1013.8
20260508142008 52 261 2.0 4.0 0.00 0.00 0.00 61 1013.7
20260508141504 52 255 3.0 3.0 0.00 0.00 0.00 61 1013.8
20260508141002 51 247 2.0 2.0 0.00 0.00 0.00 63 1013.8
20260508140459 50 231 1.0 2.0 0.00 0.00 0.00 62 1013.8
20260508135954 50 231 3.0 4.0 0.00 0.00 0.00 59 1013.9
20260508135451 50 258 4.0 4.0 0.00 0.00 0.00 61 1013.8
20260508134948 50 249 2.0 3.0 0.00 0.00 0.00 62 1013.5
20260508134445 50 259 3.0 3.0 0.00 0.00 0.00 62 1013.8
20260508133942 49 277 2.0 3.0 0.00 0.00 0.00 67 1013.8
20260508133439 49 270 3.0 3.0 0.00 0.00 0.00 68 1014.0
20260508132936 49 235 2.0 2.0 0.00 0.00 0.00 67 1013.9
20260508132435 49 248 2.0 2.0 0.00 0.00 0.00 68 1014.0
20260508131931 49 237 2.0 2.0 0.00 0.00 0.00 69 1014.1
20260508131426 49 232 1.0 2.0 0.00 0.00 0.00 69 1013.9
20260508130923 49 266 2.0 3.0 0.00 0.00 0.00 69 1014.0
20260508130420 49 248 1.0 1.0 0.00 0.00 0.00 70 1014.0
20260508125916 49 232 0.0 0.0 0.00 0.00 0.00 72 1013.9
20260508125412 49 255 0.0 0.0 0.00 0.00 0.00 72 1014.0
20260508124910 48 229 0.0 0.0 0.00 0.00 0.00 71 1014.2
20260508124408 48 244 1.0 2.0 0.00 0.00 0.00 73 1014.3
20260508123905 47 260 3.0 3.0 0.00 0.00 0.00 74 1014.3
20260508123404 47 224 4.0 6.0 0.00 0.00 0.00 74 1014.3
20260508122859 47 261 2.0 3.0 0.00 0.00 0.00 76 1014.3
20260508122357 46 246 1.0 1.0 0.00 0.00 0.00 76 1014.3
20260508121854 46 250 2.0 2.0 0.00 0.00 0.00 76 1014.1
20260508121352 46 245 2.0 2.0 0.00 0.00 0.00 77 1014.2
20260508120849 45 235 2.0 3.0 0.00 0.00 0.00 77 1014.1
20260508120347 45 250 4.0 6.0 0.00 0.00 0.00 77 1014.3
20260508115844 45 263 2.0 3.0 0.00 0.00 0.00 78 1014.1
20260508115342 44 233 2.0 2.0 0.00 0.00 0.00 79 1014.2
20260508114838 44 244 1.0 2.0 0.00 0.00 0.00 80 1014.3
20260508114335 44 244 1.0 1.0 0.00 0.00 0.00 82 1014.2
20260508113831 43 248 0.0 0.0 0.00 0.00 0.00 83 1013.9
20260508113329 43 247 0.0 0.0 0.00 0.00 0.00 86 1013.8
20260508112825 42 250 0.0 1.0 0.00 0.00 0.00 85 1013.9
20260508112323 42 239 0.0 0.0 0.00 0.00 0.00 87 1014.2
20260508111819 42 243 0.0 0.0 0.00 0.00 0.00 87 1013.8